Theta_e
326 325 325 325 323 322 322 322 322 322 322 322 321 321 321 321 321 321 321 321 321 321 321 323 324 326 325 312 314 324 343 349 332 327 325 328 329 328 324 326 327 326 329 335 338 337 335
327 327 326 324 324 323 322 322 322 322 321 321 321 321 321 321 320 321 321 320 320 320 321 323 325 326 317 308 316 324 321 327 330 327 328 329 330 330 326 325 326 331 332 334 336 336 334
326 326 326 326 324 323 322 322 322 321 320 320 320 320 319 319 320 320 320 319 318 319 321 323 325 325 312 311 318 320 321 321 328 329 327 332 334 330 328 324 329 331 327 332 334 335 332
325 325 325 325 324 323 322 322 321 321 320 319 319 319 319 319 319 319 318 317 318 320 323 324 325 321 311 315 319 319 322 322 323 328 328 333 333 330 327 328 327 324 325 319 331 334 334
323 323 324 324 324 323 322 321 321 320 319 318 318 318 318 318 318 317 316 317 320 323 323 324 322 316 309 320 316 320 321 321 324 325 328 329 331 328 327 322 320 321 316 317 320 332 331
322 322 322 322 323 323 322 321 320 319 318 317 317 317 317 317 316 315 314 317 319 323 325 324 320 311 312 311 316 318 321 320 321 324 325 327 327 323 324 320 313 314 314 316 316 321 328
322 321 321 321 322 322 321 320 319 317 317 317 317 317 316 316 315 313 317 318 317 315 318 313 311 308 310 316 319 317 320 319 321 323 319 324 320 317 320 320 320 318 316 314 318 320 322
321 321 321 321 321 320 318 317 317 316 316 317 317 316 316 315 314 313 318 318 315 315 310 316 315 315 317 317 310 315 320 316 317 315 321 319 316 322 322 321 319 317 315 316 318 320 322
317 317 317 317 316 315 316 316 316 316 316 316 316 316 315 314 313 318 318 316 320 318 311 312 313 312 313 315 310 312 317 317 314 314 317 317 319 322 320 318 317 318 315 314 314 318 323
315 315 315 314 314 314 315 315 316 316 316 315 315 315 314 311 315 319 318 319 321 319 306 306 309 312 313 314 309 316 317 316 313 312 316 318 321 319 318 317 319 314 319 315 315 315 311
314 313 313 314 313 313 314 315 315 315 315 315 315 314 312 310 316 318 319 322 321 316 296 307 309 317 314 310 310 311 318 314 311 310 313 312 315 316 316 318 319 316 317 315 315 315 316
313 313 313 312 312 312 314 314 314 314 314 314 313 312 311 316 318 319 321 322 317 304 294 305 309 309 308 310 309 312 312 315 315 312 313 313 317 318 318 321 320 319 315 316 317 316 309
312 311 311 311 311 313 313 314 314 313 312 312 311 310 310 316 319 320 321 317 304 297 305 304 305 307 307 306 307 309 308 308 307 305 306 310 312 315 316 315 317 315 313 307 307 307 306
312 313 313 313 311 312 314 314 313 313 312 311 308 308 312 317 322 320 319 309 297 300 302 309 305 306 305 307 306 307 308 306 310 309 307 305 302 312 316 314 311 312 313 308 302 304 307
313 314 314 314 314 313 313 313 312 312 311 309 307 321 319 321 320 319 313 302 303 302 306 304 306 304 304 305 304 306 307 307 309 310 305 304 305 313 314 317 316 312 310 316 311 312 308
315 314 313 314 314 314 314 313 311 311 310 309 314 317 320 322 321 318 308 301 304 305 307 306 301 306 303 305 303 304 305 308 307 311 313 309 304 310 312 315 315 314 317 309 311 304 303
313 314 315 314 314 314 314 313 311 310 309 309 315 314 317 321 319 313 303 305 306 309 308 304 303 303 304 304 306 304 304 307 309 309 312 311 308 308 311 310 309 310 310 313 314 312 306
313 313 314 314 314 314 315 313 311 309 307 311 314 311 320 321 309 311 305 306 302 307 309 307 308 306 304 304 306 306 306 309 310 311 307 311 308 304 306 312 313 314 312 314 308 309 311
313 313 314 314 314 314 314 313 311 309 308 311 313 316 321 320 306 305 308 306 307 307 309 308 306 307 308 306 305 308 309 312 310 309 308 310 305 302 304 308 311 309 312 313 313 313 311
313 312 313 314 314 313 313 313 311 309 308 313 313 312 314 317 316 308 305 305 305 312 311 312 310 310 309 308 310 308 309 311 309 310 320 313 307 304 302 305 308 306 308 312 312 307 308
312 312 313 313 313 314 313 313 312 310 308 313 317 313 313 309 310 311 311 310 307 308 314 315 311 309 307 307 308 307 310 312 313 315 312 310 304 307 307 308 308 308 308 310 310 311 309
312 312 313 313 313 313 314 313 312 310 308 314 311 310 315 314 312 312 307 310 309 311 314 311 311 309 313 312 313 309 311 314 313 315 313 313 306 308 306 308 308 305 308 310 311 312 313
312 312 312 312 312 312 313 314 312 311 309 308 310 314 311 307 312 313 312 312 311 315 316 317 315 312 311 314 319 321 321 320 317 316 315 311 308 307 303 307 307 303 307 309 311 313 314
311 311 311 312 311 312 312 313 313 312 310 309 309 308 309 307 310 311 312 314 314 315 313 315 316 312 316 324 324 323 321 320 319 319 320 314 313 311 305 308 299 309 314 313 312 314 318
311 311 311 311 311 311 311 312 313 312 311 310 311 308 308 303 307 307 309 310 313 315 313 313 315 317 322 323 316 311 311 312 313 317 318 318 315 309 305 304 307 311 314 313 312 313 321
310 310 311 311 311 311 312 312 312 313 311 311 311 312 309 303 306 308 307 309 309 310 311 313 318 323 322 318 315 307 303 308 308 310 313 315 316 312 310 304 301 310 316 320 320 311 321
309 310 310 310 311 311 312 312 312 312 311 309 309 310 308 303 307 308 306 307 312 312 310 313 315 315 322 314 310 306 305 311 306 307 308 309 310 308 308 307 309 319 321 325 311 311 324
309 309 310 310 310 310 311 311 311 312 311 309 309 311 305 302 303 305 307 307 308 311 308 314 311 314 314 311 310 309 308 310 310 313 312 311 309 308 310 307 304 323 323 316 319 322 324
309 309 310 310 310 310 310 311 311 311 311 310 306 310 310 300 302 307 308 310 309 309 308 312 312 312 316 318 318 318 313 314 312 305 320 309 313 310 312 313 327 326 325 328 331 331 332
Wind_Speed
8 6 8 10 12 12 14 15 16 16 17 17 17 18 19 19 20 20 19 19 19 18 18 16 15 16 9 7 2 6 7 7 11 10 11 7 6 4 4 2 4 4 6 10 9 8 9
10 10 7 6 9 12 13 14 16 17 18 18 18 18 19 19 20 21 20 18 19 18 16 15 12 17 7 6 2 2 7 2 5 10 8 6 4 6 2 4 7 7 8 11 8 7 8
11 11 11 8 8 10 12 14 15 16 18 19 19 19 20 20 21 22 22 21 19 18 14 11 9 6 6 3 3 4 8 3 3 8 6 2 4 7 2 4 3 7 8 8 6 6 4
13 13 13 9 8 8 11 13 15 15 16 17 19 20 21 22 22 23 23 22 18 13 9 5 6 6 5 2 6 10 5 8 6 6 6 2 4 4 5 3 5 5 5 4 9 7 5
13 12 12 12 9 8 8 10 13 15 16 17 19 20 22 23 24 24 24 21 11 4 2 5 7 6 2 3 6 0 5 7 8 5 5 3 7 4 7 9 9 6 1 2 3 10 4
14 13 12 13 11 10 10 10 12 15 16 18 19 21 21 23 24 25 24 16 2 6 5 5 3 6 5 4 1 4 5 8 8 9 9 9 8 10 8 10 6 1 2 2 5 4 10
15 13 14 14 12 10 11 12 14 15 17 18 19 21 22 23 25 25 15 5 7 8 8 8 3 5 1 4 3 7 5 11 11 15 15 13 12 12 10 3 4 1 3 4 4 4 6
17 16 15 15 16 15 15 15 15 16 17 18 19 21 23 25 26 23 9 4 6 6 9 5 8 10 10 5 5 10 8 15 13 16 16 10 16 15 4 5 5 3 4 2 4 3 6
17 17 16 16 17 16 16 16 16 16 17 18 19 21 23 25 27 10 6 6 2 8 8 4 4 5 3 10 8 11 14 16 16 18 18 19 17 9 11 10 10 9 8 4 8 8 6
16 16 16 17 17 18 17 17 16 16 17 18 20 20 21 28 9 6 1 2 9 5 7 9 7 6 8 5 8 7 14 12 8 17 18 18 8 12 16 14 12 15 7 4 8 11 7
12 13 16 15 16 17 17 18 18 17 18 18 20 20 18 12 10 5 6 7 4 6 7 5 8 5 3 10 4 12 8 11 16 10 11 16 14 17 17 16 11 14 5 6 7 12 12
16 16 16 16 17 17 17 17 17 18 19 20 20 19 18 5 5 7 7 10 6 9 4 6 4 6 8 12 7 10 13 8 7 11 13 10 2 14 19 19 12 10 8 9 8 7 13
15 15 16 15 16 15 18 18 18 19 21 22 22 20 9 5 3 7 9 6 8 9 3 5 1 3 5 10 10 12 16 17 12 15 14 13 12 8 8 14 11 15 15 13 13 10 10
13 14 15 15 16 17 17 19 20 21 23 23 26 22 8 6 4 8 6 8 8 4 2 2 3 4 8 9 11 11 16 17 17 17 12 14 16 15 13 14 16 19 20 15 14 10 9
12 11 12 14 16 16 18 19 20 22 24 25 28 3 3 3 3 5 7 10 2 0 3 5 4 6 7 8 6 11 14 16 17 15 12 12 17 6 8 14 13 11 14 20 20 6 9
15 12 12 11 15 17 18 20 22 24 25 25 6 4 3 6 4 7 8 12 1 2 4 4 4 3 4 7 10 14 13 10 9 13 15 8 10 9 15 11 14 14 11 13 12 14 13
16 16 19 13 16 17 18 20 23 25 26 21 5 5 7 4 5 7 9 10 6 5 5 4 2 4 1 1 5 9 11 8 13 17 15 10 12 12 8 14 15 13 13 11 11 14 14
15 15 15 16 17 19 19 20 21 24 27 8 5 3 4 4 7 4 9 5 1 3 4 4 6 6 7 5 5 7 9 4 3 12 18 18 11 13 16 10 5 11 20 20 12 14 12
13 15 15 16 17 19 20 21 21 23 19 5 3 2 4 5 5 8 3 9 6 5 5 3 4 4 3 5 4 6 4 0 5 11 12 16 11 12 14 14 10 11 13 11 14 15 11
11 15 16 16 16 18 20 22 21 24 18 6 5 3 5 4 1 8 4 5 7 5 8 6 7 6 9 10 7 4 4 3 6 11 5 7 15 16 12 15 18 21 18 16 19 14 15
15 15 16 16 16 17 19 21 22 24 17 6 2 5 5 3 6 3 5 2 5 6 7 5 6 10 6 7 7 7 6 6 4 5 6 12 16 12 15 10 8 13 19 20 18 17 19
13 14 15 16 16 17 18 19 21 24 27 2 6 6 4 4 5 8 5 6 8 4 5 7 9 2 6 10 11 6 5 4 3 6 6 13 11 12 15 18 16 15 18 15 18 16 15
12 14 14 15 16 17 17 17 19 20 19 5 4 1 5 2 3 5 5 8 6 2 5 6 5 8 10 8 9 11 11 13 11 8 7 6 11 9 15 18 14 18 19 19 17 16 15
11 12 13 14 15 15 16 17 17 17 16 5 4 5 5 4 5 6 4 6 8 6 8 7 10 10 6 12 18 19 18 16 16 14 13 8 7 7 12 9 18 13 16 19 19 16 15
10 10 12 13 13 14 15 16 16 14 13 5 4 5 4 7 6 10 11 10 10 10 13 14 13 11 10 12 9 13 12 12 14 15 15 14 9 7 7 13 14 8 9 13 14 14 15
9 10 10 11 12 13 14 14 14 12 12 6 4 4 4 6 4 6 8 8 10 10 10 14 9 7 7 8 9 12 13 14 11 8 8 13 13 10 7 12 13 12 17 16 14 14 9
9 9 10 10 11 12 12 13 13 12 9 8 4 6 5 6 4 4 5 7 4 6 8 7 5 6 5 9 10 12 14 9 12 14 8 8 8 14 13 10 8 5 5 12 11 7 12
9 9 10 10 10 10 11 11 11 11 9 8 3 4 6 5 11 10 11 12 9 6 7 6 8 9 7 8 10 9 9 10 12 13 7 10 8 8 7 7 13 6 9 13 7 8 8
10 10 10 10 10 10 10 10 10 9 9 6 3 1 3 6 8 14 17 18 18 17 12 6 8 5 5 5 4 7 6 7 12 14 7 10 9 9 7 4 5 5 11 9 9 10 8
Wind_Direction
14 44 23 20 11 4 3 1 359 357 354 351 348 344 341 337 333 329 327 324 321 320 317 320 321 317 293 228 105 110 318 118 157 192 225 248 297 307 30 18 156 69 97 93 111 101 84
9 0 13 36 16 3 1 360 358 354 351 348 345 341 338 333 330 328 325 324 318 315 313 315 319 309 264 239 51 165 344 221 200 207 211 232 346 354 49 21 355 98 107 118 132 122 117
13 7 7 12 24 8 1 357 355 353 350 347 344 340 337 332 328 327 325 323 318 306 302 302 303 301 264 305 337 303 300 272 229 243 235 221 304 288 319 142 107 144 121 124 148 161 144
13 13 8 9 7 9 359 356 353 350 347 345 341 338 335 332 329 327 325 322 314 298 286 263 263 266 273 77 330 279 257 246 232 242 261 308 262 291 309 150 162 202 233 246 147 195 161
2 3 359 357 353 351 352 354 350 347 346 342 339 337 333 330 328 326 324 320 312 290 127 178 232 275 181 147 215 214 263 239 185 195 199 200 234 285 197 231 193 205 107 34 151 210 167
356 352 351 347 345 343 348 353 352 347 344 341 337 334 331 329 327 325 321 304 177 176 198 224 265 246 213 144 314 303 238 246 197 174 175 214 226 234 213 232 237 176 167 128 334 96 220
350 353 351 347 338 354 1 357 351 347 342 339 336 332 329 328 325 325 319 214 215 182 204 292 14 321 168 339 210 199 193 200 210 202 207 204 222 219 221 25 18 284 284 314 18 47 277
18 17 12 14 22 12 1 354 347 343 340 337 335 331 328 327 324 317 276 10 54 4 296 229 259 265 266 293 258 206 195 201 200 207 213 183 225 226 140 202 241 236 277 286 245 357 257
24 18 17 16 9 2 354 351 343 340 337 335 334 331 329 326 320 293 357 64 45 315 255 172 215 251 182 202 221 181 199 212 207 215 202 224 218 163 195 208 233 226 268 352 334 311 220
20 8 9 6 1 355 348 340 335 334 333 332 330 329 333 327 292 349 163 32 314 236 263 133 174 139 170 221 221 188 215 201 206 218 215 232 166 197 212 221 234 255 157 287 302 302 332
17 7 1 358 357 350 338 331 328 332 334 331 329 329 331 327 320 272 21 326 312 231 243 103 125 96 175 220 98 178 185 208 209 198 198 207 207 208 218 225 210 268 132 266 297 289 307
16 10 2 360 357 345 331 332 341 339 332 328 324 326 327 206 232 283 311 310 233 229 202 135 140 173 181 202 179 143 182 229 236 203 222 256 228 225 232 235 226 251 207 230 243 286 262
14 14 10 1 353 340 344 339 343 339 331 326 321 317 295 304 356 330 302 235 230 251 119 135 114 210 233 178 178 177 183 189 183 195 201 200 196 186 227 217 199 220 235 235 225 203 249
1 3 3 4 356 352 352 348 340 334 330 326 321 313 156 248 275 310 253 226 245 47 282 94 286 249 218 173 211 187 188 200 215 225 214 198 201 199 188 226 205 214 230 238 241 239 274
348 353 357 355 360 358 351 346 342 336 332 329 311 200 227 139 261 232 242 221 258 174 359 334 262 226 165 181 244 204 197 205 197 219 237 204 232 165 220 213 232 210 239 245 261 168 266
6 348 346 354 352 348 346 346 346 338 333 333 306 278 84 333 224 220 233 249 253 305 317 308 301 330 214 167 205 201 183 196 196 211 245 183 229 183 188 220 223 266 261 206 230 249 226
3 359 1 357 353 347 347 347 349 339 336 330 246 238 36 98 223 220 227 227 242 211 279 303 310 299 311 248 278 197 175 174 211 189 217 232 243 158 186 201 198 199 226 237 262 223 248
4 1 2 358 354 351 348 347 347 343 338 295 290 218 122 286 215 219 233 231 3 230 179 266 286 286 282 300 258 220 213 249 225 224 200 215 215 232 204 204 348 233 214 221 225 206 249
0 1 359 357 352 353 352 346 346 348 351 316 338 41 162 277 244 210 176 238 263 247 237 226 258 241 299 276 277 234 204 5 208 199 212 193 221 218 219 214 207 240 236 250 251 249 244
2 1 357 356 355 355 352 351 349 348 351 286 278 201 151 228 259 288 217 212 218 194 266 259 276 254 264 256 219 270 227 167 189 229 21 218 233 227 223 221 210 211 227 224 242 234 235
357 354 353 355 356 358 355 355 352 348 354 281 337 52 7 184 193 255 253 347 232 236 217 234 231 245 272 265 236 228 233 240 161 129 214 234 230 228 239 265 227 247 214 216 232 244 253
355 355 356 358 359 0 358 358 357 349 333 305 337 336 332 290 267 241 189 221 264 241 259 221 249 114 273 263 291 329 334 273 43 171 179 226 241 244 231 230 231 235 239 221 219 238 248
352 355 356 357 360 2 1 2 2 1 340 15 14 278 283 139 247 261 253 255 270 299 244 279 311 314 270 286 334 307 295 285 278 289 298 219 233 214 231 228 226 235 234 226 227 221 233
350 354 356 358 1 2 3 4 7 15 356 349 22 292 285 283 270 276 314 311 282 269 294 299 296 292 338 322 295 264 247 252 259 253 239 261 233 241 249 193 229 242 219 219 227 232 229
345 349 352 355 359 0 2 6 8 11 2 360 11 315 325 291 326 276 264 275 272 267 262 274 285 297 306 286 270 251 235 228 229 231 223 222 252 241 238 222 239 188 194 210 226 222 221
334 340 343 346 350 353 354 359 4 13 0 329 43 324 302 307 79 352 294 296 289 281 273 260 262 295 280 268 253 240 236 228 205 175 234 229 223 267 219 269 239 242 206 211 211 233 218
330 332 333 334 337 342 347 351 356 7 1 324 27 346 279 284 304 296 272 315 309 281 278 288 324 274 229 254 249 240 240 251 253 205 174 175 212 225 227 253 259 61 127 161 201 213 178
318 319 323 326 326 331 337 342 348 355 1 319 12 6 329 290 287 265 267 264 260 241 270 3 277 199 260 249 254 245 246 237 243 263 188 197 206 193 222 251 255 130 174 209 216 245 241
312 313 314 315 317 322 325 328 336 344 348 327 318 346 308 254 286 312 273 266 264 268 289 258 301 323 320 296 279 310 270 263 256 244 184 248 258 295 309 286 35 224 236 252 356 304 243